001  
ASUS41 KRLX 282110  
RWRRLX  
WEST VIRGINIA REGIONAL WEATHER ROUNDUP  
NATIONAL WEATHER SERVICE CHARLESTON WV  
500 PM EDT FRI APR 28 2017  
 
NOTE: "FAIR" INDICATES FEW OR NO CLOUDS BELOW 12,000 FEET WITH NO  
SIGNIFICANT WEATHER AND/OR S TO VISIBILITY
.  
 
WVZ003-282200-  
NORTHERN PANHANDLE OF WEST VIRGINIA  
 
CITY SKY/WX TMP DP RH WIND PRES REMARKS
 
WHEELING CLOUDY 70 45 40 MISG 30.01F  

 
 
WVZ009-282200-  
NORTHWEST WEST VIRGINIA  
 
CITY SKY/WX TMP DP RH WIND PRES REMARKS
 
PARKERSBURG CLOUDY 78 53 41 N3 30.00S  

 
 
WVZ006-282200-  
WESTERN WEST VIRGINIA  
 
CITY SKY/WX TMP DP RH WIND PRES REMARKS
 
HUNTINGTON CLOUDY 81 53 37 SE6 29.93F  

 
 
WVZ015-282200-  
WEST CENTRAL WEST VIRGINIA  
 
CITY SKY/WX TMP DP RH WIND PRES REMARKS
 
CHARLESTON MOSUNNY 82 45 27 SW6 29.94F  

 
 
WVZ022-031-282200-  
NORTH CENTRAL WEST VIRGINIA  
 
CITY SKY/WX TMP DP RH WIND PRES REMARKS
 
CLARKSBURG SUNNY 79 50 36 CALM 29.97F  
MORGANTOWN PTSUNNY 76 52 43 VRB6 30.00F  

 
 
WVZ025-035-042-045-282200-  
SOUTHERN WEST VIRGINIA  
 
CITY SKY/WX TMP DP RH WIND PRES REMARKS
 
BECKLEY SUNNY 80 54 40 S10 30.02F  
LOGAN NOT AVBL  
BLUEFIELD SUNNY 79 47 32 VRB6 30.06S  
LEWISBURG SUNNY 79 46 31 CALM 30.04S  

 
 
WVZ047-282200-  
NORTHERN MOUNTAINS OF WEST VIRGINIA  
 
CITY SKY/WX TMP DP RH WIND PRES REMARKS
 
ELKINS SUNNY 83 45 26 NW6 29.99F  

 
 
WVZ052-282200-  
EASTERN PANHANDLE OF WEST VIRGINIA  
 
CITY SKY/WX TMP DP RH WIND PRES REMARKS
 
MARTINSBURG SUNNY 82 57 42 E7 29.98F  
PETERSBURG MOSUNNY 85 59 41 E10 29.96F  

 
 
 
CLICK HERE TO GO TO PREVIOUS BULLETINS.

The Nexlab WV Page
The Nexlab OH Page
The Nexlab KY Page
The Nexlab VA Page Main Text Page